Weather Roundup
Issued by NWS

Home | Current Version | Previous Version | Text Only | Print | Product List | Glossary On
Versions: 1 2 3 4 5 6 7 8 9 10 11 12 13 14 15 16 17 18 19 20 21 22 23 24 25 26 27 28 29 30 31 32 33 34 35 36 37 38 39 40 41 42 43 44 45 46 47 48 49 50
000
NZUS93 KARX 281359
HRRWXR

CURRENT HOURLY OBSERVATIONS ACROSS
MUCH OF THE UPPER MISSISSIPPI VALLEY
NATIONAL WEATHER SERVICE LA CROSSE WI
900 AM CDT TUE MAR 28 2017


...SOUTHEAST MINNESOTA...


CITY           SKY/WX    TMP DP  RH WIND       PRES   REMARKS
ROCHESTER      SUNNY     39  38  96 E5        30.12R FOG
ROCHESTER/MAYO FAIR      36  36 100 CALM      30.13R
WINONA         FOG       32  32 100 CALM      30.15S VSB<1/4
AUSTIN         SUNNY     37  37 100 CALM      30.11R
ALBERT LEA     SUNNY     36  36 100 CALM      30.12R
DODGE CENTER   SUNNY     37  37 100 CALM      30.12R FOG
PRESTON        SUNNY     39  36  89 NE6       30.12S WCI  35
OWATONNA       SUNNY     39  37  93 CALM      30.12R
FARIBAULT      SUNNY     39  39 100 CALM      30.13R
$$

...ELSEWHERE IN MINNESOTA...


CITY           SKY/WX    TMP DP  RH WIND       PRES   REMARKS
MINNEAPOLIS    SUNNY     42  36  79 CALM      30.13R
INTNL FALLS    CLOUDY    38  28  67 N6        30.15R WCI  33
DULUTH         MOSUNNY   41  35  79 CALM      30.12R
RED WING       FOG       34  34 100 SE3       30.14R VSB<1/4
REDWOOD FALLS  PTSUNNY   43  34  70 NE5       30.12R
MANKATO        SUNNY     40  38  93 CALM      30.13R
WORTHINGTON    SUNNY     42  38  85 N6        30.11R
FAIRMONT       SUNNY     40  38  93 CALM      30.13R
$$

...SOUTHWEST WISCONSIN...


CITY           SKY/WX    TMP DP  RH WIND       PRES   REMARKS
LA CROSSE      FOG       35  35 100 CALM      30.14R VSB<1/4
PRAIRIE DU CHI CLOUDY    45  41  86 NE3       30.11R
BOSCOBEL       CLOUDY    45  41  86 CALM      30.13R
LONE ROCK      NOT AVBL
PLATTEVILLE    CLOUDY    43  43 100 NE8       30.11R
FORT MC COY    CLOUDY    39  38  94 CALM      30.14R
MAUSTON-NEW LI CLOUDY    43  38  84 CALM      30.12R
VIROQUA        CLOUDY    42  39  89 CALM      30.11R
WIS DELLS      CLOUDY    40  38  92 NE5       30.12R
$$

...ELSEWHERE IN WISCONSIN...


CITY           SKY/WX    TMP DP  RH WIND       PRES   REMARKS
MILWAUKEE      CLOUDY    42  36  79 N12       30.11S
MADISON        CLOUDY    42  36  79 NE6       30.12R
GREEN BAY      SUNNY     40  38  93 N7        30.14R
EAU CLAIRE     NOT AVBL
BLACK RVR FLS  FOG       32  32 100 CALM      30.14R VSB<1/4
MEDFORD        SUNNY     33  32  96 NE5       30.12R WCI  28
WAUSAU         SUNNY     35  33  92 N3        30.12S
WIS RAPIDS     CLOUDY    41  36  82 CALM      30.15R
MARSHFIELD     FOG       35  34  96 E3        30.12R VSB 1
RICE LAKE      SUNNY     33  32  96 CALM      30.14S
$$

...NORTHEAST IOWA...


CITY           SKY/WX    TMP DP  RH WIND       PRES   REMARKS
WATERLOO       CLOUDY    45  41  86 NE7       30.11R
DUBUQUE        CLOUDY    43  43 100 E9        30.10R FOG
DECORAH        PTSUNNY   43  39  87 NE7       30.10R
MASON CITY     SUNNY     39  37  92 NE5       30.12S
CHARLES CITY   CLOUDY    45  45 100 E6        30.11R
OELWEIN        CLOUDY    45  45 100 NE9       30.11R
$$

...ELSEWHERE IN IOWA...


CITY           SKY/WX    TMP DP  RH WIND       PRES   REMARKS
DES MOINES     CLOUDY    48  42  80 N5        30.10R
IOWA CITY      CLOUDY    49  44  83 NE6       30.11R
FORT DODGE     CLOUDY    36  34  93 CALM      30.12R VSB 1/2
MARSHALLTOWN   CLOUDY    45  44  97 NE7       30.10R
CEDAR RAPIDS   CLOUDY    46  45  96 NE6       30.09R
$$

...NORTHERN ILLINOIS...


CITY           SKY/WX    TMP DP  RH WIND       PRES   REMARKS
CHICAGO-OHARE  CLOUDY    42  37  82 N10       30.09R
CHICAGO-MIDWAY CLOUDY    42  37  82 N10G22    30.10R
MOLINE         CLOUDY    49  44  83 NE6       30.09R HAZE
ROCKFORD       CLOUDY    43  37  79 NE10      30.13R
PEORIA         CLOUDY    47  43  86 E10       30.09R
$$

NOTE: "FAIR" INDICATES FEW OR NO CLOUDS BELOW 12,000 FEET WITH NO
SIGNIFICANT WEATHER AND/OR OBSTRUCTIONS TO VISIBILITY. WIND
SPEEDS ARE IN MILES-PER-HOUR.




USA.gov is the U.S. government's official web portal to all federal, state and local government web resources and services.